User: anonymous   Login
Location: Conflandey
(47.7287°N, 6.0456°E)
Time: 18:01:33
(UTC+00:00)
Language:

Cosmos 1908 - Orbit

View from above orbital plane
View from above orbital plane
View from above satellite
View from above satellite

Ground track
Ground track

The orbit data is extracted from the following two-line orbital elements,

1 18748U 88001A   22018.87006769  .00002427  00000-0  12497-3 0  9992
2 18748  82.4695 203.0368 0012314 205.8624 154.1995 15.15902941859311
Epoch (UTC): 18 January 2022 20:52:53
Eccentricity: 0.0012314
inclination: 82.4695°
perigee height: 510 km
apogee height: 527 km
right ascension of ascending node: 203.0368°
argument of perigee: 205.8624°
revolutions per day: 15.15902941
mean anomaly at epoch: 154.1995°
orbit number at epoch: 85931

The dashed part of the orbit path shows where the satellite is in the earth's shadow,  

DLR